Hlavní strana
METAR-TAF:

METAR-TAF

Letiště :

Paris, Tennessee, Spojené státy americké

zeměpisná šířka: 36-20-18N, zeměpisná délka: 088-22-58W, výška: 177 m

Aktuální stav počasí

Zpráva byla vytvořena před 19 minutami, v 08:15 UTC
Západojihozápadní vítr 4 kt
Teplota -2°C
Vlhkost vzduchu 100%
Tlak 1021 hPa
Viditelnost: 6.4 km
Zataženo ve výšce 500 ft
kouřmo

METAR: KPHT 150815Z AUTO 25004KT 4SM BR OVC005 M02/M02 A3014 RMK A01

Čas: 02:34 (08:34 UTC)


TAF: chybějící

Stav a předpovědi počasí z více než 4 000 letišť (zprávy METAR a TAF).

Červené a žluté tečky na mapě představují dostupné meteorologické stanice.

Když kurzor umístíte na tečku, zobrazí se název stanice.

Pak kliknutím zobrazíte stav a předpověď počasí.

Chcete-li změnit mapu, kliknutím na zelené tlačítko se znaménkem +mapu přiblížíte, kliknutím na zelené tlačítko se znaménkem – mapu oddálíte a kliknutím na zelené šipky přejdete na sousední mapy.


METAR-TAF: